Lid_Strength_Index
3 2 2 3 3 3 2 3 2 2 2 2 2 2 1 1 2 3 7 4 4 -2 -1 4 4 5 5 5 4 4 10 13 11 10 9 6 7 5 4 6 5 4 5 4 2
2 2 2 3 3 3 3 2 2 3 2 2 2 2 1 1 4 5 1 -2 -3 -2 4 4 5 5 5 5 5 7 11 11 7 7 8 7 6 6 7 7 7 6 4 2 2
2 2 2 2 3 3 3 3 2 2 2 2 2 2 1 2 5 4 -3 -3 -2 -2 3 4 4 4 6 5 6 7 10 7 6 6 5 6 6 5 8 9 7 7 5 3 5
2 2 2 2 2 3 3 3 3 2 2 2 2 1 1 3 9 3 -2 -3 -2 1 4 5 6 7 7 8 6 9 7 7 6 5 6 7 6 7 7 7 5 4 4 5 5
2 3 3 2 2 2 3 3 3 3 3 3 2 1 3 5 5 -0 -2 -1 0 2 4 6 7 6 8 7 6 8 7 6 5 5 6 5 7 7 7 5 4 4 4 6 6
2 2 3 3 3 3 3 3 3 3 3 3 2 2 3 8 3 0 1 1 2 4 6 6 6 4 6 7 8 7 6 7 6 6 6 7 7 7 6 5 5 5 5 5 5
2 3 2 2 3 2 3 3 3 3 3 2 2 2 4 5 2 2 3 4 3 3 5 4 2 4 5 7 5 7 8 7 8 7 7 6 9 9 6 5 6 5 5 4 5
3 3 3 3 2 2 3 3 4 3 2 1 1 3 5 2 2 2 3 4 2 3 4 3 2 4 5 5 6 9 9 12 8 7 7 7 13 8 6 6 7 6 5 5 5
3 3 3 3 3 3 4 4 4 2 1 1 4 4 6 1 3 2 3 3 3 3 3 2 3 6 6 9 11 11 14 13 11 7 8 9 12 8 6 6 7 6 6 5 5
3 4 4 3 3 3 4 4 3 3 2 2 3 5 3 4 3 2 3 2 3 3 4 5 6 8 9 10 14 13 13 12 13 9 8 10 11 8 7 7 7 7 6 6 5
3 3 4 4 3 4 5 4 5 5 3 5 4 4 5 2 2 3 2 3 3 4 8 7 9 10 9 8 8 8 11 13 11 8 9 10 11 9 8 7 7 7 6 6 5
3 3 4 4 3 4 6 5 4 4 6 3 4 3 3 3 5 4 2 5 5 8 6 8 9 7 6 6 8 9 10 10 9 8 9 10 11 10 8 8 7 7 7 6 5
4 4 4 4 3 6 5 4 3 3 7 4 4 5 4 4 5 4 4 5 6 8 7 9 8 6 7 8 9 10 10 10 10 9 8 11 13 11 9 8 7 6 5 5 5
4 4 4 4 4 4 5 3 3 3 9 7 5 5 3 3 5 3 3 4 7 8 7 8 7 7 7 8 8 11 7 8 9 11 14 9 18 13 11 10 7 6 6 6 5
4 4 4 4 5 6 3 3 2 3 14 7 6 3 4 5 5 4 3 5 7 7 8 9 8 8 8 8 7 9 7 8 9 10 12 14 16 14 11 12 9 7 6 5 5
4 4 4 4 5 5 4 3 3 9 14 8 6 6 7 6 5 5 5 4 5 7 7 8 6 7 8 6 6 6 9 9 9 11 16 15 15 17 14 11 8 6 6 5 5
4 4 5 3 3 3 3 4 10 13 7 8 8 7 7 7 6 6 7 8 9 11 11 9 8 6 6 8 7 8 12 16 16 16 18 13 16 15 11 9 8 7 7 6 5
4 5 4 3 3 5 4 7 14 9 9 6 7 7 8 7 7 6 7 9 7 8 11 11 13 8 6 8 10 10 12 15 19 18 16 13 18 15 9 7 6 6 6 5 5
5 3 3 2 2 4 6 11 11 9 7 8 8 9 9 7 7 8 9 8 7 7 10 12 12 6 6 6 8 10 12 10 13 13 15 16 14 10 8 8 7 6 6 6 6
4 2 2 3 2 4 7 10 9 7 6 7 11 9 11 8 8 8 10 8 8 6 7 9 13 8 7 6 7 8 8 13 13 19 19 17 17 16 12 10 7 7 7 7 6
3 5 2 1 1 5 10 9 8 5 6 8 9 10 10 12 10 10 11 8 6 7 6 8 11 11 8 9 10 11 12 11 12 13 18 19 18 10 10 8 8 8 7 7 6
3 8 2 1 7 7 8 6 6 7 5 7 7 9 10 10 11 11 11 9 6 7 9 8 10 13 11 7 7 9 10 11 15 16 14 15 17 8 8 7 8 7 7 7 6
6 5 1 3 9 8 6 6 5 6 6 7 8 8 8 9 12 9 9 6 6 7 8 8 12 14 12 11 9 10 9 10 10 12 15 17 17 8 7 8 7 8 7 7 7
5 8 5 4 5 7 8 8 7 5 5 5 6 6 9 10 9 10 9 7 6 5 5 7 11 13 15 13 10 11 9 9 11 15 14 14 14 11 9 8 7 7 7 8 7
5 7 6 8 7 6 7 7 8 9 6 4 6 7 8 10 9 10 9 8 7 6 7 9 13 11 10 9 8 9 9 9 11 11 14 13 13 11 9 7 8 8 8 7 6
6 7 5 6 6 6 8 8 9 9 8 8 8 7 8 10 9 10 9 9 9 7 9 8 13 11 12 9 9 10 9 9 9 9 10 11 12 8 8 7 8 8 7 7 6
3 3 5 8 7 7 8 8 8 7 6 6 7 7 8 7 6 7 7 7 7 9 10 10 12 13 15 10 11 13 12 9 9 9 9 13 10 8 8 8 8 7 6 6 5